www.pogodaiklimat.ru

Погода и климат >> Архив погоды >> Саудовская Аравия >> Madinah


ПОГОДА в Madinah

  • Прогноз погоды в Madinah
  • Монитор погоды в Madinah
  • Климат города

АРХИВ ПОГОДЫ в Madinah

Время (UTC), дата Ветер
(напр.,м/с)
 
Видим.   Явления Облачность Т
(С)
Тd
(С)
f
(%)
Тe
(С)
Тes
(С)
Комфортность P
(гПа)
Po
(гПа)
Тmin
(С)
Tmax
(С)
R
(мм)
R24
(мм)
S
(см)
00 11.01 ЮВ 3 10 км ясно +10.9 -16.0 14 +10 +10 1021.1 947.7
03 11.01 штиль 0 10 км ясно +9.3 -15.0 16 +10 +10 1022.0 948.1
06 11.01 ЮВ 3 10 км ясно +11.3 -15.0 14 +11 +14 1023.6 949.9 +8.0
09 11.01 ЮВ 5 10 км ясно +18.4 -18.0 7 +18 +23 1021.9 948.9
12 11.01 ЮВ 6 10 км ясно +22.9 -19.0 5 +20 +22 1019.0 946.3
15 11.01 В 4 10 км ясно +22.6 -18.0 5 +20 +20 1018.9 946.0
18 11.01 В 5 10 км ясно +19.6 -16.0 8 +19 +19 1019.7 946.6 +24.0
21 11.01 В 3 10 км ясно +17.4 -16.0 9 +18 +18 1019.4 946.9
00 12.01 штиль 0 8000 м пыль ясно +13.9 -15.0 12 +14 +14 1018.9 946.6
03 12.01 штиль 0 8000 м пыль ясно +11.0 -14.0 16 +11 +11 1019.8 947.1
06 12.01 штиль 0 10 км ясно +13.2 -13.0 15 +13 +18 1021.5 948.5 +9.5
09 12.01 В 3 10 км ясно +19.3 -14.0 9 +19 +29 1020.0 947.7
12 12.01 ЮВ 2 10 км ясно +23.8 -16.0 6 +21 +26 комфорт 1016.8 944.7
15 12.01 Ю 2 10 км ясно +24.3 -18.0 5 +21 +21 комфорт 1016.5 944.2
18 12.01 С 3 10 км ясно +17.3 -15.0 10 +18 +18 1018.1 945.1 +25.6
21 12.01 СВ 4 10 км ясно +15.5 -15.0 11 +15 +15 1017.4 944.9
00 13.01 СВ 3 10 км ясно +13.6 -14.0 13 +13 +13 1016.9 944.8
03 13.01 СВ 2 10 км ясно +12.3 -13.0 16 +12 +12 1017.7 945.4
06 13.01 штиль 0 7000 м пыль ясно +13.1 -13.0 15 +13 +18 1020.0 946.8 +9.6
09 13.01 В 4 10 км ясно +20.8 -12.0 10 +20 +27 1017.9 945.6
12 13.01 В 5 10 км ясно +25.9 -18.0 4 +22 +25 комфорт 1013.6 942.0
15 13.01 В 4 10 км ясно +25.1 -18.0 5 +22 +22 комфорт 1013.9 942.0
18 13.01 С 3 10 км ясно +18.6 -17.0 8 +19 +19 1015.4 942.7 +26.5
21 13.01 штиль 0 10 км ясно +15.6 -16.0 10 +16 +16 1015.0 942.9
00 14.01 штиль 0 10 км ясно +12.4 -15.0 13 +13 +13 1014.1 942.3
03 14.01 штиль 0 10 км ясно +12.0 -15.0 14 +12 +12 1014.7 942.7
06 14.01 штиль 0 10 км ясно +13.4 -14.0 14 +14 +18 1016.6 943.9 +10.0
09 14.01 штиль 0 10 км ясно +22.4 -1.0 21 +21 +36 комфорт 1015.5 943.6
12 14.01 ЮЗ 7 10 км ясно +26.1 +3.0 22 +25 +27 комфорт 1012.7 941.0
15 14.01 З 6 10 км ясно +25.0 +5.0 28 +25 +25 комфорт 1013.6 941.7
18 14.01 З 5 10 км ясно +22.7 +8.0 39 +24 +24 комфорт 1016.0 943.8 +26.6
21 14.01 Ю 4 10 км ясно +20.8 +9.0 47 +23 +23 комфорт 1014.8 943.5
00 15.01 В 2 10 км ясно +17.1 +7.0 51 +17 +17 1015.5 944.2
03 15.01 штиль 0 10 км ясно +16.0 +8.0 59 +16 +16 1017.7 946.0
06 15.01 штиль 0 10 км ясно +17.2 +8.0 55 +17 +22 1019.1 947.1 +14.3
09 15.01 Ю 2 10 км ясно +22.3 +9.0 43 +24 +35 комфорт 1018.0 946.5
12 15.01 В 2 10 км 1/1 1350 м
[Cu hum]
+24.2 +6.0 31 +24 +29 комфорт 1015.4 943.9
15 15.01 штиль 0 10 км ясно +24.3 +5.0 29 +24 +24 комфорт 1015.9 944.2
18 15.01 С 2 10 км ясно +22.2 +4.0 30 +22 +22 комфорт 1017.1 945.2 +25.0
21 15.01 СВ 3 10 км ясно +20.3 +2.0 30 +21 +21 комфорт 1017.9 946.3
00 16.01 СВ 6 10 км ясно +16.5 -2.0 28 +16 +16 1019.2 947.3
03 16.01 СВ 5 10 км ясно +14.7 -1.0 34 +14 +14 1020.1 947.9
06 16.01 СВ 6 10 км ясно +14.8 -1.0 34 +13 +15 1022.3 949.8 +13.5
09 16.01 ЮВ 7 10 км ясно +19.4 -3.0 22 +19 +22 1021.1 949.0
12 16.01 ЮВ 5 10 км ясно +23.0 -4.0 16 +21 +24 комфорт 1016.9 945.0
15 16.01 В 3 10 км ясно +23.5 -4.0 16 +22 +22 комфорт 1015.6 943.7
18 16.01 С 2 10 км ясно +18.8 -4.0 21 +19 +19 1017.1 944.5 +24.0
21 16.01 СВ 2 10 км ясно +17.7 -3.0 24 +18 +18 1016.0 943.9
00 17.01 СВ 2 10 км ясно +14.6 -3.0 30 +15 +15 1014.4 942.5
03 17.01 С 2 10 км ясно +12.7 -4.0 31 +12 +12 1014.4 942.3
06 17.01 В 2 10 км ясно +14.2 -4.0 28 +14 +18 1015.8 943.2 +11.6
09 17.01 штиль 0 10 км ясно +20.0 -9.0 13 +19 +34 опасность
простуды
1013.6 941.8
12 17.01 З 2 10 км ясно +25.1 -6.0 12 +23 +28 комфорт 1009.3 938.0
15 17.01 З 4 10 км ясно +25.6 -4.0 14 +23 +23 комфорт 1009.0 937.6
18 17.01 З 4 10 км ясно +22.7 -1.0 21 +22 +22 комфорт 1011.9 940.1 +26.0
21 17.01 ЮВ 2 10 км ясно +19.2 +1.0 30 +20 +20 1012.0 940.5

 

Местоположение метеостанции Madinah (Саудовская Аравия): широта 24.55 долгота 39.70 высота над уровнем моря 636 м.

В архиве по умолчанию представлена погода в Madinah за последнюю неделю. Архивные данные за месяц целиком и за предыдущие месяцы, начиная с января 2011 года, Вы можете получить, выбрав интересующий диапазон дат из раскрывающегося списка и нажав кнопку "Ввод!".

Внимание! Время в таблицах - всемирное. Для получения местного времени необходимо прибавить поправку, которая в Madinah равна 3 ч.

Смотрите также архив погоды в соседних городах и на ближайших метеорологических станциях:

Погода в Yanbu (Саудовская Аравия) (172 км)
Погода в Al-Ula (Саудовская Аравия) (267 км)
Погода в Jeddah King Abdul Aziz (Саудовская Аравия) (321 км)
Погода в Makkah (Саудовская Аравия) (347 км)
Погода в Mina (Саудовская Аравия) (349 км)
Погода в Al Taif (Саудовская Аравия) (352 км)
Погода в Arafat (Саудовская Аравия) (359 км)
Погода в Al-Wajh (Саудовская Аравия) (372 км)
Погода в Hail (Саудовская Аравия) (377 км)
Погода в Shalatin (Египет) (448 км)

Пояснения к столбцам:

Ветер - указаны скорость ветра в м/с - средняя за 10 мин, порывы в срок и между сроками (в фигурных скобках) и направление, откуда дует ветер: С - северный, СВ - северо-восточный, В - восточный, ЮВ - юго-восточный, Ю - южный, ЮЗ - юго-западный, З - западный, СЗ - северо-западный.
Видимость - горизонтальная дальность видимости в метрах или километрах. При видимости от 1 до 10 км при отсутствии осадков обычно наблюдается дымка, при ухудшении видимости до 1 км и менее - туман. В сухую погоду видимость может ухудшаться дымом, пылью или мглою.
Явления - указаны атмосферные явления, наблюдавшиеся в срок или в последний час перед сроком; фигурными скобками обозначены явления, наблюдавшиеся между сроками (за 1-3 часа до срока); квадратными скобками обозначены град или гололедные отложения с указанием их диаметра в мм.
Облачность - указаны через наклонную черту общая и нижняя облачность в баллах и высота нижней границы облаков в метрах; квадратными скобками обозначены формы облаков: Ci - перистые, Cs - перисто-слоистые, Cc - перисто-кучевые, Ac - высококучевые, As - высокослоистые, Sc - слоисто-кучевые, Ns - слоисто-дождевые, Cu - кучевые, Cb - кучево-дождевые. Подробнее классификацию облаков см. в Атласе облаков (PDF).
T - Температура воздуха - температура, измеренная на высоте 2 м над землей.
Td - Температура точки росы - температура, при понижении до которой содержащийся в воздухе водяной пар достигнет насыщения.
f - Относительная влажность воздуха - влажноcть воздуха, измеренная на высоте 2 м над землей.
Te - Эффективная температура - температура, которую ощущает одетый по сезону человек в тени. Характеристика душности погоды. При расчете учитывается влияние влажности воздуха и скорости ветра на теплоощущения человека.
Tes - Эффективная температура на солнце - температура, которую ощущает человек, с поправкой на солнечный нагрев. Характеристика знойности погоды. Зависит от высоты солнца над горизонтом, облачности и скорости ветра. Ночью, в пасмурную погоду, а также при ветре 12 м/с и более поправка равна нулю.
P - Атмосферное давление - приведенное к уровню моря атмосферное давление.
Po - Атмосферное давление - измеренное на уровне метеостанции атмосферное давление.
Tmin - Минимальная температура - минимум температуры воздуха на высоте 2 м над землей.
Tmax - Максимальная температура - максимум температуры воздуха на высоте 2 м над землей.
R - Количество осадков - Количество выпавших осадков за период времени, мм. При наведении курсора мыши на число - период времени, за который выпало указанное количество осадков.
R24 - Количество осадков - Количество выпавших осадков за 24 часа, мм.
S - Снежный покров - Высота снежного покрова, см. При наведении курсора мыши на число - состояние снежного покрова и степень покрытия местности в баллах.